This is the latest recevied weather packets stored in our database for station/object KI4MRC. If no packets are shown the sender has not sent any weather packets the latest 1 day(s).
| Time | Temp. | Humidity | Pressure | Rain* | Wind** | Luminosity | Snow |
|---|---|---|---|---|---|---|---|
| 1778030496 | 24.44° C | 82% | 1014.8 hPa | 0 mm | 1.34 m/s, 94° | 0 W/m² | - |
| 1778030194 | 25° C | 82% | 1014.9 hPa | 0 mm | 1.34 m/s, 53° | 0 W/m² | - |
| 1778029890 | 25° C | 81% | 1014.8 hPa | 0 mm | 1.34 m/s, 77° | 0 W/m² | - |
| 1778029589 | 25° C | 81% | 1014.8 hPa | 0 mm | 0.45 m/s, 107° | 0 W/m² | - |
| 1778029285 | 25° C | 81% | 1014.7 hPa | 0 mm | 1.79 m/s, 118° | 0 W/m² | - |
| 1778028982 | 25° C | 82% | 1014.7 hPa | 0 mm | 1.34 m/s, 115° | 0 W/m² | - |
| 1778028678 | 25° C | 82% | 1015 hPa | 0 mm | 0.89 m/s, 64° | 0 W/m² | - |
| 1778028375 | 25° C | 81% | 1014.9 hPa | 0 mm | 1.34 m/s, 55° | 0 W/m² | - |
| 1778028072 | 25° C | 81% | 1014.9 hPa | 0 mm | 1.34 m/s, 67° | 0 W/m² | - |
| 1778027768 | 25° C | 81% | 1015 hPa | 0 mm | 2.24 m/s, 47° | 0 W/m² | - |
| 1778027464 | 25° C | 82% | 1015 hPa | 0 mm | 1.34 m/s, 48° | 0 W/m² | - |
| 1778027160 | 25° C | 81% | 1014.8 hPa | 0 mm | 1.79 m/s, 62° | 0 W/m² | - |
| 1778026856 | 25° C | 81% | 1014.8 hPa | 0 mm | 0.89 m/s, 53° | 0 W/m² | - |
| 1778026553 | 25° C | 81% | 1014.9 hPa | 0 mm | 1.79 m/s, 106° | 0 W/m² | - |
| 1778026250 | 25° C | 80% | 1014.8 hPa | 0 mm | 1.34 m/s, 94° | 0 W/m² | - |
| 1778025947 | 25° C | 80% | 1014.8 hPa | 0 mm | 1.34 m/s, 92° | 0 W/m² | - |
| 1778025645 | 25° C | 80% | 1014.8 hPa | 0 mm | 0.89 m/s, 80° | 1 W/m² | - |
| 1778025343 | 25° C | 79% | 1014.7 hPa | 0 mm | 0.89 m/s, 113° | 2 W/m² | - |
| 1778025039 | 25° C | 80% | 1014.8 hPa | 0 mm | 1.34 m/s, 106° | 3 W/m² | - |
| 1778024736 | 25° C | 80% | 1014.6 hPa | 0 mm | 1.79 m/s, 122° | 6 W/m² | - |
| 1778024433 | 25° C | 79% | 1014.5 hPa | 0 mm | 0.89 m/s, 87° | 9 W/m² | - |
| 1778024130 | 25.56° C | 79% | 1014.4 hPa | 0 mm | 0.89 m/s, 58° | 11 W/m² | - |
| 1778023828 | 25.56° C | 79% | 1014.5 hPa | 0 mm | 1.34 m/s, 108° | 15 W/m² | - |
| 1778023526 | 25.56° C | 79% | 1014.3 hPa | 0 mm | 0.45 m/s, 88° | 20 W/m² | - |
| 1778023223 | 25.56° C | 79% | 1014.4 hPa | 0 mm | 0.89 m/s, 110° | 22 W/m² | - |
* Rain latest hour (hover to see other rain measurements)
** Current wind speed in m/s (hover to see current wind gust speed)